Location: *
(58.7167°N, 26.1833°E)
Time: 09:02:36
(UTC+00:00)

Meteor 1-16 Rocket - Pass Details

Date: 25 August 2019
Orbit: 789 x 908 km, 81.2° (Epoch: 21 October)

Event Time Altitude Azimuth Distance (km) Brightness Sun altitude
Exits shadow 23:47:36 30° 190° (S) 1,545 5.0 -18.3°
Maximum altitude 23:50:39 85° 104° (ESE) 916 4.3 -18.2°
Drops below altitude 10° 23:56:38 10° 17° (NNE) 2,608 8.0 -17.8°
Sets 23:59:07 0° 17° (NNE) 3,553 9.1 -17.7°
